Weather History for Columbia, SC

Change the Weather History Date:

Tuesday, July 23, 2013

  Actual Average Record
Temperature  
Mean Temperature 84 °F 82 °F  
Max Temperature 92 °F 93 °F 107 °F (1952)
Min Temperature 75 °F 72 °F 58 °F (2007)
Degree Days  
Heating Degree Days 0 0  
Month to date heating degree days 0 0  
Since 1 June heating degree days 0 1  
Since 1 July heating degree days 0 0  
Cooling Degree Days 19 17  
Month to date cooling degree days 358 391  
Year to date cooling degree days 1112 1136  
Since 1 June cooling degree days 792 815  
Growing Degree Days 33 (Base 50)    
Moisture  
Dew Point 72 °F    
Average Humidity 72    
Maximum Humidity 94    
Minimum Humidity 49    
Precipitation  
Precipitation 0.00 in 0.19 in 3.43 in (1997)
Month to date precipitation 9.94 3.90  
Year to date precipitation 34.73 25.10  
Sea Level Pressure  
Sea Level Pressure 29.85 in    
Wind  
Wind Speed 9 mph (WSW)    
Max Wind Speed 16 mph    
Max Gust Speed 21 mph    
Visibility 10 miles    
Events      
T = Trace of Precipitation, MM = Missing Value Source: NWS Daily Summary

Daily Weather History Graph

Daily Weather History Graph

Search for Another Location

Airport:

Trip Planner

Search our weather history database for the weather conditions in past years. The results will help you decide how hot, cold, wet, or windy it might be!

Date:

Astronomy

Jul. 23, 2013 Rise Set
Actual Time 6:29 AM EDT 8:31 PM EDT
Civil Twilight 6:01 AM EDT 8:59 PM EDT
Nautical Twilight 5:27 AM EDT 9:33 PM EDT
Astronomical Twilight 4:51 AM EDT 10:09 PM EDT
Moon 9:06 PM EDT (7/23) 7:31 AM EDT (7/23)
Length of Visible Light 14h 57m
Length of Day
14h 01m
Full, 99% of the Moon is Illuminated
Jul 23
Full
Jul 29
Last Quarter
Aug 6
New
Aug 14
First Quarter
Aug 20
Full

Hourly Weather History & Observations

Time (EDT) Temp. Heat Index Dew Point Humidity Pressure Visibility Wind Dir Wind Speed Gust Speed Precip Events Conditions
12:56 AM 78.1 °F - 73.0 °F 84% 29.88 in 10.0 mi SW 6.9 mph - N/A   Scattered Clouds
1:56 AM 77.0 °F - 73.0 °F 88% 29.88 in 10.0 mi SW 6.9 mph - N/A   Scattered Clouds
2:56 AM 77.0 °F - 73.0 °F 88% 29.87 in 10.0 mi SW 9.2 mph - N/A   Scattered Clouds
3:56 AM 75.9 °F - 73.0 °F 91% 29.86 in 10.0 mi WSW 10.4 mph - N/A   Mostly Cloudy
4:56 AM 75.9 °F - 73.0 °F 91% 29.86 in 10.0 mi SW 9.2 mph - N/A   Clear
5:56 AM 75.0 °F - 72.0 °F 90% 29.88 in 10.0 mi WSW 6.9 mph - N/A   Partly Cloudy
6:19 AM 75.2 °F - 71.6 °F 89% 29.89 in 10.0 mi WSW 8.1 mph - N/A   Mostly Cloudy
6:56 AM 75.0 °F - 72.0 °F 90% 29.88 in 10.0 mi WSW 10.4 mph - N/A   Scattered Clouds
7:56 AM 77.0 °F - 72.0 °F 84% 29.89 in 10.0 mi West 6.9 mph - N/A   Scattered Clouds
8:56 AM 79.0 °F - 71.1 °F 77% 29.88 in 10.0 mi West 9.2 mph - N/A   Scattered Clouds
9:56 AM 82.0 °F 86.3 °F 71.1 °F 69% 29.88 in 10.0 mi WSW 12.7 mph - N/A   Scattered Clouds
10:56 AM 84.0 °F 89.0 °F 71.1 °F 65% 29.88 in 10.0 mi WSW 11.5 mph - N/A   Scattered Clouds
11:56 AM 87.1 °F 92.8 °F 71.1 °F 59% 29.88 in 10.0 mi West 13.8 mph 20.7 mph N/A   Partly Cloudy
12:56 PM 88.0 °F 93.8 °F 71.1 °F 57% 29.87 in 10.0 mi West 11.5 mph 18.4 mph N/A   Scattered Clouds
1:56 PM 90.0 °F 94.5 °F 69.1 °F 50% 29.85 in 10.0 mi WNW 8.1 mph - N/A   Scattered Clouds
2:56 PM 90.0 °F 96.4 °F 71.1 °F 54% 29.83 in 10.0 mi West 11.5 mph - N/A   Mostly Cloudy
3:56 PM 91.0 °F 96.6 °F 70.0 °F 50% 29.81 in 10.0 mi WNW 12.7 mph - N/A   Scattered Clouds
4:56 PM 91.0 °F 95.6 °F 69.1 °F 48% 29.79 in 10.0 mi WNW 12.7 mph - N/A   Scattered Clouds
5:56 PM 90.0 °F 93.6 °F 68.0 °F 48% 29.78 in 10.0 mi WSW 8.1 mph - N/A   Scattered Clouds
6:56 PM 90.0 °F 94.5 °F 69.1 °F 50% 29.78 in 10.0 mi West 8.1 mph - N/A   Scattered Clouds
7:56 PM 87.1 °F 92.8 °F 71.1 °F 59% 29.79 in 10.0 mi West 4.6 mph - N/A   Scattered Clouds
8:56 PM 82.9 °F 88.8 °F 73.0 °F 72% 29.80 in 10.0 mi SW 4.6 mph - N/A   Scattered Clouds
9:56 PM 82.0 °F 87.4 °F 73.0 °F 74% 29.82 in 10.0 mi WSW 6.9 mph - N/A   Scattered Clouds
10:56 PM 80.1 °F 84.5 °F 73.9 °F 81% 29.83 in 10.0 mi WSW 4.6 mph - N/A   Scattered Clouds
11:56 PM 79.0 °F - 73.9 °F 84% 29.82 in 10.0 mi WSW 3.5 mph - N/A   Scattered Clouds